NOAA 16 DEB, 41074

Orbit data source: Space-Track

NOAA 16 DEB, 41074 is space debris in SSO originally from a launch on Thu, 21 Sep 2000 UTC launched from the Air Force Western Test Range (AFWTR). Debris objects in space refer to the collection of defunct objects orbiting the Earth. Examples of debris include non-operational satellites, rocket bodies, and fragments generated from explosions, collisions, or faulty payload assembly.

Loading next visibility...
NOAA 16 DEB details
Identifier
41074, 2000-055AH
Orbit
SSO
Last TLE update1 day ago
Origin
Flag of USNOAA (US)
ManufacturerUnknown
MissionSpacecraft
Bus & MotorUnknown
MassUnknown
Launch date (UTC)
2000-09-21 (24 years ago)
Launch vehicleUnknown
Launch site
Air Force Western Test Range (AFWTR)
Object type
Payload
Rocket body
Debris
Shape & HBRUnknown
Radar Cross SectionSmall (<0.1 m²)

Expand to show TLE details & history

TLE from 1 day ago
0 NOAA 16 DEB
1 41074U 00055AH  24359.96794245  .00005236  00000-0  14986-2 0  9991
2 41074  98.8536 157.6111 0089155  23.3140 337.2054 14.43161660475653
Epoch: 2024-12-24T23:13Z
Definitive object data (Epoch: 2024-12-24T23:13:50.227Z)
Latitude-0.00002°
Longitude75.18338°
Altitude692.515 km
Speed7.541 km/s
True Right ascension10h 30m 26s
True Declination0° 00' 00"
Sunlit
Object was in daylight at TLE epoch
Visualization TLE readout
Latitude42.76035°
Longitude-95.0397°
Altitude783.481 km
Speed7.451 km/s
Apparent Right ascension22h 40m 27s
Apparent Declination4° 21' 53"
Sunlit
Object is in daylight
Visualization observer readout
Local Sidereal Time10:09:11
Azimuth348.912° N
Elevation-45.139°
Doppler factor1
Orbital elements
Apogee altitude808.714 km
Perigee altitude681.698 km
Semi-major axis7,123.343 km
Eccentricity0.0089155
Inclination98.8536°
RAAN157.6111°
Arg. of periapsis23.314°
True anomaly336.80548°
Mean anomaly337.2054°
Eccentric anomaly337.00585°
Mean motion3.61008 °/min
BSTAR0.0014986
Orbital period99.72 mins
Loading maneuver chart data...
Loading historical data...
Loading historical data...
Loading historical data...
Loading historical data...
Loading historical data...
Loading historical data...
Loading historical data...

NOAA 16 DEB Visibility forecast

Observer location: undefined°, undefined

Span
Click to sort rows by Start time (UTC) header in descending order
Start Az.
Max El. time (UTC)
Max El. Az.
Max El.
End time (UTC)
End Az.
4 mins2024-12-26 11:58:56.393Z243.006° WSW2024-12-26 12:00:56.393Z271.572° WNW14.45°2024-12-26 12:02:56.393Z298.431° NW
4 mins2024-12-26 22:26:56.393Z74.937° E2024-12-26 22:27:56.393Z88.666° E16.041°2024-12-26 22:30:56.393Z126.99° SE
8 mins2024-12-27 00:03:56.393Z358.238° N2024-12-27 00:06:56.393Z296.097° NW39.695°2024-12-27 00:11:56.393Z211.372° SW
4 mins2024-12-27 09:38:56.393Z87.309° E2024-12-27 09:39:56.393Z70.666° E18.849°2024-12-27 09:42:56.393Z24.988° NE
|